Find Kosmos-2437

NORAD ID: 32954 Int'l Des: 2008-025 Owner: KVR Country: RU operational
LEOCIRCULARPOLAR

リアルタイム位置

3D地球を読み込み中...

Kosmos-2437について

説明を読み込み中...

次回通過

Passes for default location (London). Set your location on the main map for personalized predictions.

高度履歴

Loading altitude history...

軌道要素

1 32954U 08025B 26106.96050509 .00000002 00000-0 -54979-4 0 9998
2 32954 82.5051 35.5227 0021569 101.4207 27.5847 12.42757637811768
Epoch: Apr 16, 2026 • Age: 4 hours

現在のステータス

高度 1514.1 km
速度 7.10 km/s
衛星直下点 -33.88°S, 35.39°W
打ち上げ日 May 23, 2008
運用期間 17.9 years
タイプ other

技術仕様

分類 Payload
質量 225.00 kg
乾燥質量 225.00 kg
総質量 225.00 kg
長さ 1.60 m
直径 0.80 m
スパン 7.00 m
形状 Cyl + Ant
製造者 RESH
バスタイプ Strela-3
フェーズステータス In Orbit
所有者/国 KVR/RU

Most Searched